Home   Weather   Wedel   Past weeks

Flag for Germany Past Weather in Wedel, Schleswig-Holstein, Germany — Yesterday and Last 2 Weeks

Now
73 °F

Passing clouds.


Feels Like: 77 °F
Forecast: 54 / 66 °F
Wind: 16 mph from Southeast

Location: Hamburg-Fuhlsbuettel

Current Time: Sep 25, 2016 at 4:03:31 PM

Latest Report: Sep 25, 2016 at 3:20 PM


Visibility: N/A

Pressure: 30.04 "Hg

Humidity: 38%

Dew Point: 46 °F

Location of WedelLocation

Past Weather in Wedel — Graph

°F

Wedel Temperature Yesterday

Maximum temperature yesterday: 70 °F (at 4:50 PM)
Minimum temperature yesterday: 46 °F (at 5:50 AM)
Average temperature yesterday: 58 °F

High & Low Weather Summary for the Past Weeks

 TemperatureHumidityPressure
High86 °F (Sep 13, 1:50 PM)100% (Sep 11, 6:50 AM)30.27 "Hg (Sep 11, 6:50 AM)
Low46 °F (Sep 19, 3:20 AM)29% (Sep 13, 5:20 PM)29.89 "Hg (Sep 16, 3:50 AM)
Average64 °F75%30.07 "Hg
* Reported Sep 10 2:20 PM — Sep 25 2:50 PM, Wedel, Weather by CustomWeather, © 2016

Note: Actual official high and low records may vary slightly from our data, if they occured in-between our weather recording intervals... More about our weather records

Advertising

Wedel Weather History for the Previous 24 Hours

Scroll right to see more
 ConditionsComfort  
Time TempWeatherWind HumidityBarometerVisibility
2:50 PM
Sun, Sep 25
73 °FSunny.16 mph41%30.04 "Hg10 mi
2:20 PM73 °FPassing clouds.16 mph41%30.07 "HgN/A
1:50 PM72 °FSunny.15 mph47%30.07 "Hg10 mi
1:20 PM72 °FPassing clouds.15 mph47%30.07 "HgN/A
12:50 PM70 °FSunny.13 mph53%30.07 "Hg10 mi
12:20 PM68 °FSunny.10 mph60%30.09 "Hg10 mi
11:50 AM66 °FPassing clouds.10 mph60%30.09 "HgN/A
11:20 AM64 °FPassing clouds.12 mph64%30.09 "HgN/A
10:50 AM63 °FSunny.12 mph68%30.09 "Hg10 mi
10:20 AM61 °FSunny.12 mph72%30.12 "Hg10 mi
9:50 AM59 °FSunny.8 mph72%30.12 "Hg10 mi
9:20 AM55 °FSunny.10 mph82%30.12 "Hg10 mi
8:50 AM55 °FSunny.9 mph77%30.12 "Hg10 mi
8:20 AM54 °FSunny.8 mph82%30.12 "Hg10 mi
7:50 AM52 °FPassing clouds.7 mph82%30.12 "HgN/A
7:20 AM52 °FSunny.7 mph82%30.12 "Hg10 mi
6:50 AM54 °FClear.6 mph77%30.12 "Hg10 mi
6:20 AM54 °FClear.9 mph82%30.12 "Hg10 mi
5:50 AM54 °FClear.9 mph82%30.15 "Hg10 mi
5:20 AM54 °FClear.9 mph82%30.15 "Hg10 mi
4:50 AM54 °FClear.8 mph82%30.15 "Hg10 mi
4:20 AM54 °FClear.7 mph82%30.15 "Hg10 mi
3:50 AM54 °FClear.8 mph82%30.15 "Hg10 mi
3:20 AM54 °FClear.7 mph82%30.15 "Hg10 mi
2:50 AM54 °FClear.7 mph82%30.15 "Hg10 mi
2:20 AM54 °FClear.9 mph82%30.18 "Hg10 mi
1:50 AM55 °FClear.9 mph77%30.18 "Hg10 mi
1:20 AM55 °FClear.9 mph82%30.18 "Hg10 mi
12:50 AM55 °FClear.9 mph82%30.18 "Hg10 mi
12:20 AM55 °FClear.8 mph82%30.18 "Hg10 mi
11:50 PM
Sat, Sep 24
55 °FClear.8 mph82%30.18 "Hg10 mi
11:20 PM55 °FClear.6 mph82%30.18 "Hg10 mi
10:50 PM57 °FClear.6 mph77%30.18 "Hg10 mi
10:20 PM57 °FClear.7 mph77%30.18 "Hg10 mi
9:50 PM59 °FClear.7 mph72%30.18 "Hg10 mi
9:20 PM59 °FClear.6 mph72%30.18 "Hg10 mi
8:50 PM61 °FClear.8 mph68%30.18 "Hg10 mi
8:20 PM59 °FClear.7 mph77%30.18 "Hg10 mi
7:50 PM61 °FClear.6 mph72%30.18 "Hg10 mi
7:20 PM61 °FClear.6 mph72%30.18 "Hg10 mi
6:50 PM64 °FSunny.6 mph60%30.18 "Hg10 mi
6:20 PM64 °FPassing clouds.8 mph60%30.18 "HgN/A
5:50 PM66 °FSunny.8 mph56%30.18 "Hg10 mi
5:20 PM68 °FPassing clouds.9 mph53%30.18 "HgN/A
4:50 PM70 °FPartly sunny.9 mph53%30.21 "HgN/A
4:20 PM68 °FPartly sunny.8 mph53%30.21 "HgN/A
Weather by CustomWeather, © 2016

See weather overviewHow to use our weather pages